N1XBM-13 Weather Reports


time (UTC)temp
C
wind
direction
speed
KPH
gust
KPH
rain 1hr
cm
rain 24hr
cm
rain mn
cm
humidity
%
barometer
mb
20260905120004 17 297 3.2 8.0 0.00 0.00 0.00 83 993.2
20260905115004 17 311 3.2 11.3 0.00 0.00 0.00 83 993.2
20260905114004 17 262 1.6 4.8 0.00 0.00 0.00 84 993.2
20260905113004 17 39 3.2 8.0 0.00 0.00 0.00 84 993.2
20260905112003 17 0 0.0 3.2 0.00 0.00 0.00 86 993.1
20260905111004 16 283 0.0 3.2 0.00 0.00 0.00 86 993.0
20260905110004 16 326 3.2 4.8 0.00 0.00 0.00 86 992.9
20260905105004 16 294 1.6 3.2 0.00 0.00 0.00 87 992.7
20260905104004 16 319 3.2 4.8 0.00 0.00 0.00 87 992.7
20260905103003 16 293 1.6 4.8 0.00 0.00 0.00 87 992.7
20260905102004 16 272 0.0 3.2 0.00 0.00 0.00 87 992.6
20260905101004 16 275 1.6 3.2 0.00 0.00 0.00 87 992.6
20260905100004 16 304 0.0 0.0 0.00 0.00 0.00 88 992.6
20260905095004 16 304 0.0 4.8 0.00 0.00 0.00 88 992.5
20260905094004 16 40 0.0 0.0 0.00 0.00 0.00 88 992.4
20260905093003 16 40 0.0 1.6 0.00 0.00 0.00 89 992.3
20260905092004 16 309 0.0 0.0 0.00 0.00 0.00 89 992.4
20260905091004 16 309 0.0 0.0 0.00 0.00 0.00 89 992.4
20260905090004 16 309 0.0 0.0 0.00 0.00 0.00 89 992.3
20260905085004 16 309 0.0 0.0 0.00 0.00 0.00 88 992.3
20260905084004 16 309 0.0 0.0 0.00 0.00 0.00 88 992.2
20260905083004 16 309 0.0 0.0 0.00 0.00 0.00 87 992.0
20260905081004 16 309 0.0 0.0 0.00 0.00 0.00 87 991.9
20260905080004 16 309 0.0 0.0 0.00 0.00 0.00 87 991.9
20260905075003 16 309 0.0 0.0 0.00 0.00 0.00 86 991.8
20260905074003 16 309 0.0 0.0 0.00 0.00 0.00 86 991.8
20260905073004 17 309 0.0 1.6 0.00 0.00 0.00 85 991.9
20260905072004 17 289 0.0 8.0 0.00 0.00 0.00 85 991.8
20260905070004 17 310 3.2 4.8 0.00 0.00 0.00 84 991.7
20260905065004 17 331 1.6 8.0 0.00 0.00 0.00 84 991.7
20260905064004 17 311 1.6 4.8 0.00 0.00 0.00 84 991.7
20260905063004 17 342 0.0 4.8 0.00 0.00 0.00 83 991.7
20260905062004 17 336 1.6 8.0 0.00 0.00 0.00 83 991.7
20260905061004 17 330 3.2 8.0 0.00 0.00 0.00 83 991.9
20260905060004 17 49 1.6 3.2 0.00 0.00 0.00 84 991.8
20260905055003 17 8 1.6 8.0 0.00 0.00 0.00 83 991.9
20260905054003 17 345 3.2 4.8 0.00 0.00 0.00 83 991.9
20260905053004 17 335 0.0 0.0 0.00 0.00 0.00 82 992.1
20260905051003 17 80 1.6 4.8 0.00 0.00 0.00 82 992.0
20260905050004 17 329 3.2 4.8 0.00 0.00 0.00 82 992.0
20260905045003 17 8 0.0 4.8 0.00 0.00 0.00 81 992.0
20260905044004 18 336 1.6 3.2 0.00 0.00 0.00 81 992.0
20260905042004 18 327 1.6 8.0 0.00 0.00 0.00 79 991.9
20260905041004 18 332 3.2 8.0 0.00 0.00 0.00 76 992.0
20260905035004 19 307 3.2 9.7 0.00 0.00 0.00 76 991.9
20260905034004 18 314 3.2 12.9 0.00 0.00 0.00 77 991.9
20260905033004 18 319 3.2 9.7 0.00 0.00 0.00 77 991.9
20260905032004 18 330 3.2 9.7 0.00 0.00 0.00 77 992.0
20260905031004 19 342 3.2 8.0 0.00 0.00 0.00 77 992.1
20260905030004 18 356 1.6 8.0 0.00 0.00 0.00 76 992.2
20260905025005 19 311 0.0 3.2 0.00 0.00 0.00 76 992.2
20260905023004 19 265 0.0 3.2 0.00 0.00 0.00 78 992.2
20260905022004 19 271 1.6 3.2 0.00 0.00 0.00 77 992.3
20260905021004 19 297 1.6 4.8 0.00 0.00 0.00 75 992.4
20260905015004 19 305 0.0 1.6 0.00 0.00 0.00 74 992.4
20260905014006 19 4 1.6 1.6 0.00 0.00 0.00 74 992.4
20260905013004 19 4 0.0 3.2 0.00 0.00 0.00 74 992.5
20260905012004 20 261 1.6 3.2 0.00 0.00 0.00 75 992.4
20260905011003 20 56 0.0 0.0 0.00 0.00 0.00 73 992.6
20260905010004 20 56 1.6 3.2 0.00 0.00 0.00 69 992.4
20260905005005 20 316 3.2 4.8 0.00 0.00 0.00 71 992.4
20260905004004 20 25 0.0 3.2 0.00 0.00 0.00 69 992.4
20260905003004 20 21 0.0 1.6 0.00 0.00 0.00 67 992.4
20260905002004 21 350 1.6 3.2 0.00 0.00 0.00 65 992.4
20260905001004 21 277 0.0 4.8 0.00 0.00 0.00 66 992.4
20260905000004 21 21 1.6 8.0 0.00 0.00 0.00 65 992.1
20260904234004 21 351 3.2 8.0 0.00 0.00 0.00 62 992.0
20260904232003 21 312 1.6 12.9 0.00 0.00 0.00 63 992.0
20260904230004 22 18 1.6 8.0 0.00 0.00 0.00 63 992.2
20260904225004 22 314 3.2 9.7 0.00 0.00 0.00 62 992.1
20260904224004 22 345 3.2 8.0 0.00 0.00 0.00 62 992.0
20260904223003 22 326 4.8 8.0 0.00 0.00 0.00 60 991.9
20260904222004 22 47 1.6 9.7 0.00 0.00 0.00 61 992.0
20260904215004 23 352 1.6 8.0 0.00 0.00 0.00 59 992.0
20260904214003 23 300 4.8 9.7 0.00 0.00 0.00 58 991.9
20260904213005 23 302 3.2 9.7 0.00 0.00 0.00 59 991.9
20260904211004 23 21 3.2 11.3 0.00 0.00 0.00 56 991.9
20260904210003 23 317 4.8 14.5 0.00 0.00 0.00 56 991.8
20260904205004 24 5 3.2 9.7 0.00 0.00 0.00 58 991.8
20260904204004 24 306 1.6 9.7 0.00 0.00 0.00 58 991.7
20260904203003 24 253 3.2 11.3 0.00 0.00 0.00 56 991.8
20260904202004 24 291 3.2 11.3 0.00 0.00 0.00 57 991.8
20260904201004 24 356 1.6 9.7 0.00 0.00 0.00 55 991.8
20260904200007 24 125 1.6 11.3 0.00 0.00 0.00 55 991.8
20260904195004 24 7 4.8 12.9 0.00 0.00 0.00 52 991.8
20260904194004 25 251 8.0 14.5 0.00 0.00 0.00 51 991.7
20260904193003 25 338 6.4 14.5 0.00 0.00 0.00 50 991.8
20260904192004 24 35 1.6 11.3 0.00 0.00 0.00 56 991.9
20260904191003 24 320 4.8 11.3 0.00 0.00 0.00 55 992.1
20260904190004 25 334 1.6 4.8 0.00 0.00 0.00 59 992.0
20260904185004 25 336 0.0 11.3 0.00 0.00 0.00 56 991.9
20260904184003 24 306 3.2 11.3 0.00 0.00 0.00 56 992.0
20260904181004 25 315 3.2 9.7 0.00 0.00 0.00 55 992.0
20260904175003 25 340 1.6 8.0 0.00 0.00 0.00 60 992.0
20260904174004 25 285 3.2 4.8 0.00 0.00 0.00 57 992.0
20260904173004 25 282 1.6 9.7 0.00 0.00 0.00 59 992.1
20260904172004 24 305 1.6 4.8 0.00 0.00 0.00 63 992.3
20260904171004 24 241 1.6 4.8 0.00 0.00 0.00 63 992.3
20260904170004 25 275 3.2 9.7 0.00 0.00 0.00 60 992.3
20260904165004 25 225 3.2 14.5 0.00 0.00 0.00 59 992.3
20260904164004 25 314 8.0 11.3 0.00 0.00 0.00 54 992.6
20260904163004 25 5 3.2 11.3 0.00 0.00 0.00 60 992.6
20260904162004 25 136 3.2 11.3 0.00 0.00 0.00 60 992.6
20260904161006 24 8 3.2 12.9 0.00 0.00 0.00 62 992.7
20260904155004 23 299 3.2 9.7 0.00 0.00 0.00 65 992.9
20260904154003 23 286 1.6 8.0 0.00 0.00 0.00 65 993.0
20260904153004 23 344 3.2 11.3 0.00 0.00 0.00 67 992.9
20260904152004 23 79 3.2 4.8 0.00 0.00 0.00 68 993.1
20260904151004 23 349 1.6 4.8 0.00 0.00 0.00 71 993.3
20260904150004 23 337 1.6 8.0 0.00 0.00 0.00 72 993.3
20260904145004 22 0 3.2 8.0 0.00 0.00 0.00 74 993.2
20260904144004 22 324 3.2 8.0 0.00 0.00 0.00 73 993.4
20260904143004 22 180 1.6 4.8 0.00 0.00 0.00 76 993.4
20260904142004 21 35 1.6 3.2 0.00 0.00 0.00 80 993.5
20260904140004 21 291 1.6 8.0 0.00 0.00 0.00 82 993.5
20260904135003 20 254 0.0 3.2 0.00 0.00 0.00 83 993.5
20260904134003 20 273 3.2 4.8 0.00 0.00 0.00 84 993.5
20260904133004 19 35 0.0 8.0 0.00 0.00 0.00 89 993.7
20260904132004 18 64 1.6 4.8 0.00 0.00 0.00 92 993.6
20260904130004 18 288 0.0 3.2 0.00 0.00 0.00 95 993.7
20260904125003 17 352 0.0 3.2 0.00 0.00 0.00 95 993.7
20260904124003 17 120 0.0 0.0 0.00 0.00 0.00 95 993.6
20260904123007 17 120 0.0 1.6 0.00 0.00 0.00 95 993.6
20260904122004 17 320 0.0 0.0 0.00 0.00 0.00 95 993.6
20260904121004 17 320 0.0 0.0 0.00 0.00 0.00 96 993.4